www.pogodaiklimat.ru

ПОГОДА в Fagernes

  • Прогноз погоды в Fagernes
  • Монитор погоды в Fagernes
  • Климат города

АРХИВ ПОГОДЫ в Fagernes

Время (UTC), дата Ветер
(напр.,м/с)
 
Видим.   Явления Облачность Т
(С)
Тd
(С)
f
(%)
Тe
(С)
Тes
(С)
Комфортность P
(гПа)
Po
(гПа)
Тmin
(С)
Tmax
(С)
R
(мм)
S
(см)
17 15.01 штиль 0 н/о н/о -13.5 -15.1 88 -14 -14 1025.6 977.9
18 15.01 штиль 0
{1}
>70 км ясно -13.7 -15.3 88 -14 -14 1026.4 978.6 -12.1
19 15.01 штиль 0 н/о н/о -13.6 -15.1 88 -14 -14 1026.7 978.8
20 15.01 штиль 0 н/о н/о -13.9 -15.4 88 -14 -14 1027.5 979.6
21 15.01 ЮЗ 1-1
{1}
н/о н/о -13.7 -15.5 86 -16 -16 1028.0 980.1
22 15.01 З 1-1
{2}
н/о н/о -14.0 -15.8 86 -16 -16 1028.4 980.4
23 15.01 штиль 0 н/о н/о -14.5 -16.5 85 -15 -15 1029.4 981.2
00 16.01 штиль 0-1
{2}
>70 км ясно -14.5 -16.5 85 -15 -15 1029.7 981.6
01 16.01 штиль 0 н/о н/о -14.7 -16.4 87 -15 -15 1030.4 982.1
02 16.01 штиль 0-1
{1}
н/о н/о -14.9 -16.8 85 -15 -15 1031.0 982.7
03 16.01 штиль 0
{1}
>70 км ясно -15.1 -16.8 87 -15 -15 1030.9 982.6
04 16.01 штиль 0
{1}
н/о н/о -15.2 -16.9 87 -15 -15 1031.6 983.2
05 16.01 штиль 0 н/о н/о -15.3 -17.2 85 -15 -15 1031.9 983.5
06 16.01 штиль 0
{1}
>70 км ясно -15.3 -17.2 85 -15 -15 1032.5 984.0 -15.4 -13.5
07 16.01 штиль 0 н/о н/о -15.3 -17.2 85 -15 -15 1033.2 984.7
08 16.01 штиль 0-1
{1}
н/о н/о -15.4 -17.1 87 -15 -15 1033.9 985.4
09 16.01 штиль 0 н/о н/о -15.4 -17.3 85 -15 -15 1034.5 985.9
10 16.01 штиль 0-1
{1}
н/о н/о -15.2 -17.1 85 -15 -15 1034.6 986.1
11 16.01 штиль 0-1
{1}
н/о н/о -14.8 -16.5 87 -15 -15 1034.7 986.2
12 16.01 ЮЗ 1-1
{1}
>70 км ясно -14.3 -16.3 85 -17 -16 1034.3 986.0
13 16.01 штиль 0
{1}
н/о н/о -14.2 -16.2 85 -14 -14 1033.5 985.3
14 16.01 штиль 0
{1}
н/о н/о -14.4 -16.3 85 -14 -14 1033.3 985.0
15 16.01 штиль 0
{1}
н/о н/о -14.3 -16.1 86 -14 -14 1033.2 985.0
16 16.01 штиль 0 н/о н/о -13.7 -15.3 88 -14 -14 1032.9 984.7
17 16.01 штиль 0 н/о н/о -13.4 -15.3 86 -13 -13 1032.7 984.6
18 16.01 штиль 0
{1}
н/о н/о -13.1 -15.1 85 -13 -13 1032.4 984.3 -15.7 -13.0
19 16.01 штиль 0-1
{2}
н/о н/о -12.8 -15.0 84 -13 -13 1032.1 984.2
20 16.01 штиль 0-1
{2}
н/о н/о -12.1 -14.3 84 -12 -12 1032.0 984.2
21 16.01 штиль 0
{2}
н/о н/о -11.2 -13.4 84 -11 -11 1031.9 984.2
22 16.01 ЮЗ 1-1
{1}
н/о н/о -10.5 -13.0 82 -13 -13 1032.2 984.6
23 16.01 СВ 2-2
{2}
н/о н/о -10.3 -12.2 86 -15 -15 1031.6 984.1
00 17.01 штиль 0-1
{2}
20 км слабый снег 10/5 600 м
[Frnb As op]
-9.6 -11.4 87 -10 -10 1031.4 984.1
01 17.01 штиль 0 н/о н/о -9.2 -11.0 87 -10 -10 1030.8 983.6
02 17.01 штиль 0-1
{2}
н/о н/о -9.4 -11.2 87 -10 -10 1030.8 983.5
03 17.01 штиль 0-1
{1}
20 км слабый снег 10/5 600 м
[Frnb As op]
-9.0 -11.0 85 -10 -10 1030.6 983.4
04 17.01 штиль 0-1
{2}
н/о н/о -8.9 -10.6 87 -9 -9 1030.2 983.0
05 17.01 СВ 1-2
{2}
н/о н/о -9.2 -11.0 87 -12 -12 1030.4 983.1
06 17.01 штиль 0-1
{2}
н/о н/о -9.0 -10.7 87 -10 -10 1030.2 983.0 -13.4 -8.7
07 17.01 СВ 1-2
{2}
н/о н/о -8.6 -10.4 87 -11 -11 1030.1 983.0
08 17.01 штиль 0
{2}
н/о н/о -8.3 -9.9 88 -9 -9 1030.1 983.1
09 17.01 СВ 1-2
{2}
30 км 10/0
[As trans]
-7.8 -9.6 87 -10 -10 1029.9 983.0
10 17.01 штиль 0
{1}
н/о н/о -7.7 -9.5 87 -8 -8 1030.0 983.0
11 17.01 штиль 0
{1}
н/о н/о -7.4 -9.4 86 -8 -8 1029.4 982.5
12 17.01 штиль 0-1
{2}
н/о н/о -7.0 -9.0 86 -8 -8 1029.5 982.7
13 17.01 СВ 1-1
{2}
н/о н/о -6.8 -8.7 86 -9 -9 1029.1 982.3
14 17.01 СВ 1-1
{1}
н/о н/о -6.5 -8.5 86 -9 -9 1029.0 982.3
15 17.01 В 1-1
{2}
н/о н/о -6.5 -8.4 86 -9 -9 1029.3 982.5
16 17.01 СВ 1-1
{1}
н/о н/о -7.0 -8.6 88 -9 -9 1029.4 982.6
17 17.01 СВ 1-1
{2}
н/о н/о -7.1 -8.8 88 -10 -10 1029.5 982.7
18 17.01 штиль 0-1
{2}
н/о н/о -7.8 -9.1 90 -9 -9 1029.6 982.7 -9.0 -6.1
19 17.01 В 1-2
{2}
н/о н/о -7.8 -9.1 90 -10 -10 1030.2 983.2
20 17.01 СВ 1-2
{2}
н/о н/о -7.3 -8.6 90 -10 -10 1030.4 983.4
21 17.01 СВ 1-1
{2}
н/о н/о -6.9 -8.4 89 -9 -9 1030.3 983.4
22 17.01 штиль 0-1
{2}
н/о н/о -7.1 -8.6 89 -8 -8 1030.4 983.5
23 17.01 штиль 0-1
{2}
н/о н/о -7.5 -9.0 89 -8 -8 1030.2 983.3
00 18.01 СВ 1-2
{2}
55 км 5/0
[Ac cuf]
-7.2 -8.7 89 -10 -10 1029.7 982.8

 

Местоположение метеостанции Fagernes (Норвегия): широта 60.99 долгота 9.24 высота над уровнем моря 365 м.

В архиве по умолчанию представлена погода в Fagernes за последнюю неделю. Архивные данные за месяц целиком и за предыдущие месяцы, начиная с января 2011 года, Вы можете получить, выбрав интересующий диапазон дат из раскрывающегося списка и нажав кнопку "Ввод!".

Внимание! Время в таблицах - всемирное. Для получения местного времени необходимо прибавить поправку, которая в Fagernes равна 1 ч.

Ветер - указаны скорость ветра в м/с - средняя за 10 мин, порывы в срок и между сроками (в фигурных скобках) и направление, откуда дует ветер: С - северный, СВ - северо-восточный, В - восточный, ЮВ - юго-восточный, Ю - южный, ЮЗ - юго-западный, З - западный, СЗ - северо-западный.
Видимость - горизонтальная дальность видимости в метрах или километрах. При видимости от 1 до 10 км при отсутствии осадков обычно наблюдается дымка, при ухудшении видимости до 1 км и менее - туман. В сухую погоду видимость может ухудшаться дымом, пылью или мглою.
Явления - указаны атмосферные явления, наблюдавшиеся в срок или в последний час перед сроком; фигурными скобками обозначены явления, наблюдавшиеся между сроками (за 1-3 часа до срока); квадратными скобками обозначены град или гололедные отложения с указанием их диаметра в мм.
Облачность - указаны через наклонную черту общая и нижняя облачность в баллах и высота нижней границы облаков в метрах; квадратными скобками обозначены формы облаков: Ci - перистые, Cs - перисто-слоистые, Cc - перисто-кучевые, Ac - высококучевые, As - высокослоистые, Sc - слоисто-кучевые, Ns - слоисто-дождевые, Cu - кучевые, Cb - кучево-дождевые. Подробнее классификацию облаков см. в Атласе облаков (PDF).
T - Температура воздуха - температура, измеренная на высоте 2 м над землей.
Td - Температура точки росы - температура, при понижении до которой содержащийся в воздухе водяной пар достигнет насыщения.
f - Относительная влажность воздуха - влажноcть воздуха, измеренная на высоте 2 м над землей.
Te - Эффективная температура - температура, которую ощущает одетый по сезону человек в тени. Характеристика душности погоды. При расчете учитывается влияние влажности воздуха и скорости ветра на теплоощущения человека.
Tes - Эффективная температура на солнце - температура, которую ощущает человек, с поправкой на солнечный нагрев. Характеристика знойности погоды. Зависит от высоты солнца над горизонтом, облачности и скорости ветра. Ночью, в пасмурную погоду, а также при ветре 12 м/с и более поправка равна нулю.
P - Атмосферное давление - приведенное к уровню моря атмосферное давление.
Po - Атмосферное давление - измеренное на уровне метеостанции атмосферное давление.
Tmin - Минимальная температура - минимум температуры воздуха на высоте 2 м над землей.
Tmax - Максимальная температура - максимум температуры воздуха на высоте 2 м над землей.
R - Количество осадков - Количество выпавших осадков, мм. При наведении курсора мыши на число - период времени, за который выпало указанное количество осадков.
S - Снежный покров - Высота снежного покрова, см. При наведении курсора мыши на число - состояние снежного покрова и степень покрытия местности в баллах.